{"data":{"norad_id":61253,"epoch":"2026-05-24T23:08:35.240064Z","epoch_age_seconds":71376,"freshness":"FRESH","line1":"1 61253U 24175L   26144.96429676  .00000858  00000+0  11935-4 0  9995","line2":"2 61253  53.1595  40.4478 0000907  87.7873 272.3249 15.69707583 96555","mean_motion":15.69707583,"eccentricity":9.07e-5,"inclination_deg":53.1595,"raan_deg":40.4478,"arg_perigee_deg":87.7873,"mean_anomaly_deg":272.3249,"bstar":1.1935e-5,"rev_number":9655,"period_min":91.736831470731,"perigee_km":359.12254208798,"apogee_km":360.34479182697,"semimajor_km":6737.8706669575,"source":"CELESTRAK","updated_at":"2026-05-25T13:38:19.365753Z"}}